Home > Weather > Da Nang > Past weeks

Flag for Vietnam Past Weather in Da Nang, Vietnam — Yesterday and Last 2 Weeks

Now
79 °F

Passing clouds.


Feels Like: 82 °F
Forecast: 78 / 93 °F
Wind: 3 mph from Southwest

Location: Da Nang Airport

Current Time: Jul 28, 2016 at 2:25:49 AM

Latest Report: Jul 28, 2016 at 2:00 AM


Visibility: N/A

Pressure: 29.71 "Hg

Humidity: 89%

Dew Point: 75 °F

Location of Da NangLocation

Past Weather in Da Nang — Graph

°F

Da Nang Temperature Yesterday

Maximum temperature yesterday: 95 °F (at 1:00 PM)
Minimum temperature yesterday: 77 °F (at 1:00 AM)
Average temperature yesterday: 83 °F

High & Low Weather Summary for the Past Weeks

 TemperatureHumidityPressure
High100 °F (Jul 15, 11:00 AM)94% (Jul 16, 4:00 AM)29.89 "Hg (Jul 16, 4:00 AM)
Low75 °F (Jul 18, 4:30 AM)44% (Jul 14, 12:00 PM)29.56 "Hg (Jul 13, 4:00 PM)
Average86 °F73%29.75 "Hg
* Reported Jul 13 1:00 AM — Jul 28 1:00 AM, Da Nang, Weather by CustomWeather, © 2016

Note: Actual official high and low records may vary slightly from our data, if they occured in-between our weather recording intervals... More about our weather records

Advertising

Da Nang Weather History for the Previous 24 Hours

Scroll right to see more
 ConditionsComfort  
Time TempWeatherWind HumidityBarometerVisibility
1:00 AM
Thu, Jul 28
79 °FPassing clouds.3 mph89%29.71 "HgN/A
12:30 AM79 °FPassing clouds.2 mph89%29.74 "HgN/A
12:00 AM79 °FPassing clouds.3 mph89%29.74 "HgN/A
11:30 PM
Wed, Jul 27
79 °FPassing clouds.6 mph89%29.74 "HgN/A
11:00 PM79 °FLight rain. Passing clouds.7 mph89%29.77 "HgN/A
10:30 PM79 °FPassing clouds.8 mph89%29.77 "HgN/A
10:00 PM79 °FPassing clouds.7 mph94%29.77 "HgN/A
9:30 PM79 °FPassing clouds.6 mph94%29.77 "HgN/A
9:00 PM79 °FPassing clouds.6 mph94%29.77 "HgN/A
8:30 PM81 °FLight rain. Passing clouds.2 mph84%29.77 "HgN/A
8:00 PM81 °FPassing clouds.2 mph84%29.77 "HgN/A
7:30 PM81 °FPassing clouds.3 mph84%29.74 "HgN/A
7:00 PM82 °FPassing clouds.5 mph79%29.74 "HgN/A
6:30 PM81 °FPartly cloudy.5 mph89%29.71 "HgN/A
6:00 PM82 °FBroken clouds.7 mph84%29.71 "HgN/A
5:30 PM82 °FBroken clouds.7 mph84%29.68 "HgN/A
5:00 PM86 °FThunderstorms. Broken clouds.7 mph75%29.68 "HgN/A
4:30 PM88 °FThunderstorms. Broken clouds.5 mph70%29.68 "HgN/A
4:00 PM88 °FThunderstorms. Broken clouds.7 mph70%29.68 "HgN/A
3:30 PM90 °FBroken clouds.7 mph63%29.68 "HgN/A
3:00 PM91 °FBroken clouds.7 mph63%29.68 "HgN/A
2:30 PM91 °FBroken clouds.2 mph56%29.68 "HgN/A
2:00 PM93 °FBroken clouds.3 mph53%29.68 "HgN/A
1:30 PM93 °FBroken clouds.2 mph56%29.68 "HgN/A
1:00 PM95 °FBroken clouds.3 mph50%29.71 "HgN/A
12:30 PM93 °FBroken clouds.2 mph53%29.71 "HgN/A
12:00 PM93 °FBroken clouds.3 mph56%29.71 "HgN/A
11:30 AM93 °FBroken clouds.2 mph53%29.74 "HgN/A
11:00 AM91 °FPartly sunny.1 mph56%29.74 "HgN/A
10:30 AM90 °FPartly sunny.2 mph59%29.74 "HgN/A
10:00 AM90 °FPartly sunny.2 mph59%29.74 "HgN/A
9:30 AM88 °FPartly sunny.3 mph62%29.74 "HgN/A
9:00 AM86 °FPartly sunny.1 mph70%29.74 "HgN/A
8:30 AM84 °FPartly sunny.1 mph70%29.74 "HgN/A
8:00 AM82 °FPartly sunny.1 mph79%29.71 "HgN/A
7:30 AM81 °FPartly sunny.No wind84%29.71 "HgN/A
7:00 AM81 °FPartly sunny.2 mph79%29.71 "HgN/A
6:30 AM79 °FPartly sunny.5 mph84%29.71 "HgN/A
6:00 AM79 °FPartly sunny.7 mph84%29.68 "HgN/A
5:30 AM79 °FPartly sunny.5 mph84%29.68 "HgN/A
5:00 AM79 °FPassing clouds.5 mph84%29.68 "HgN/A
4:30 AM77 °FPassing clouds.3 mph89%29.68 "Hg5 mi
4:00 AM77 °FPassing clouds.3 mph89%29.68 "Hg5 mi
3:30 AM77 °FPassing clouds.3 mph89%29.68 "Hg5 mi
3:00 AM77 °FPassing clouds.8 mph89%29.68 "Hg5 mi
2:30 AM77 °FPassing clouds.5 mph89%29.68 "Hg5 mi
2:00 AM77 °FPassing clouds.6 mph94%29.68 "Hg5 mi
Weather by CustomWeather, © 2016

See weather overviewHow to use our weather pages